Date String (YYYY-MM-DD hh:mm:ss) UTC,Instrument flags,Ambient pressure (hPa),Sample flow (lpm),Bypass flow (lpm),Sample temperature (°C),Ambient temperature (°C),ASC tube jacket temperature (°C),LED temperature (°C),Box temperature (°C),Sample RH (%),Span deviation,Mass concentration (μg/m³),Mass concentration (μg/m³),Mass concentration (μg/m³)
DateTimeUTC,F1_M11,P_M11,Q1_M11,Q2_M11,T1_M11,T2_M11,T3_M11,T4_M11,T5_M11,U1_M11,ZSPAN_M11,X0_M11,X2_M11,X1_M11
2022-04-12 01:00:00,,0807.1,4.99,0.00,28.7,27.9,00.0,37.6,30.6,06.7,0000.0,0024.51,0005.77,0002.29
2022-04-12 01:01:00,,0807.1,5.01,0.00,28.7,27.9,00.0,37.6,30.6,06.8,0000.0,0023.74,0005.78,0002.29
2022-04-12 01:02:00,,0807.1,4.99,0.00,28.7,27.9,00.0,37.6,30.6,06.9,0000.0,0022.43,0005.76,0002.30
2022-04-12 01:03:00,,0807.1,5.00,0.00,28.8,28.0,00.0,37.6,30.6,06.9,0000.0,0022.03,0005.71,0002.29
2022-04-12 01:04:00,,0807.1,5.01,0.00,28.8,28.0,00.0,37.6,30.6,07.0,0000.0,0022.92,0005.71,0002.30
2022-04-12 01:05:00,,0807.1,5.00,0.00,28.8,28.0,00.0,37.6,30.6,07.0,0000.0,0022.57,0005.74,0002.31
2022-04-12 01:06:00,,0807.1,5.01,0.00,28.8,28.0,00.0,37.6,30.6,07.0,0000.0,0021.70,0005.73,0002.32
2022-04-12 01:07:00,,0807.1,4.99,0.00,28.8,28.0,00.0,37.6,30.6,07.1,0000.0,0021.49,0005.70,0002.33
2022-04-12 01:08:00,,0807.1,5.01,0.00,28.8,28.0,00.0,37.6,30.6,07.0,0000.0,0021.87,0005.66,0002.34
2022-04-12 01:09:00,,0807.1,4.99,0.00,28.8,28.0,00.0,37.6,30.6,07.1,0000.0,0022.43,0005.69,0002.33
2022-04-12 01:10:00,,0807.1,5.01,0.00,28.8,28.0,00.0,37.6,30.6,07.2,0000.0,0022.54,0005.66,0002.35
2022-04-12 01:11:00,,0807.1,5.00,0.00,28.8,28.0,00.0,37.6,30.6,07.2,0000.0,0022.54,0005.70,0002.35
2022-04-12 01:12:00,,0807.1,5.00,0.00,28.8,28.0,00.0,37.7,30.6,07.1,0000.0,0022.51,0005.68,0002.35
2022-04-12 01:13:00,,0807.1,5.00,0.00,28.8,28.0,00.0,37.7,30.6,07.0,0000.0,0022.90,0005.72,0002.35
2022-04-12 01:14:00,,0807.1,5.00,0.00,28.8,27.9,00.0,37.7,30.6,06.9,0000.0,0023.86,0005.85,0002.35
2022-04-12 01:15:00,,0807.1,4.99,0.00,28.8,27.9,00.0,37.7,30.6,06.9,0000.0,0022.56,0005.92,0002.34
2022-04-12 01:16:00,,0807.1,4.99,0.00,28.8,27.9,00.0,37.7,30.6,06.8,0000.0,0021.74,0005.91,0002.33
2022-04-12 01:17:00,,0807.1,5.01,0.00,28.8,27.9,00.0,37.7,30.6,06.8,0000.0,0022.23,0005.95,0002.31
2022-04-12 01:18:00,,0807.2,4.99,0.00,28.8,27.9,00.0,37.7,30.6,06.7,0000.0,0022.75,0005.87,0002.28
2022-04-12 01:19:00,,0807.1,5.01,0.00,28.8,27.9,00.0,37.7,30.6,06.8,0000.0,0023.13,0005.84,0002.26
2022-04-12 01:20:00,,0807.1,4.99,0.00,28.8,27.9,00.0,37.7,30.5,06.8,0000.0,0022.15,0005.74,0002.26
2022-04-12 01:21:00,,0807.2,5.01,0.00,28.8,27.9,00.0,37.7,30.5,06.9,0000.0,0022.23,0005.77,0002.23
2022-04-12 01:22:00,,0807.1,5.00,0.00,28.8,27.9,00.0,37.7,30.6,06.9,0000.0,0021.93,0005.75,0002.22
2022-04-12 01:23:00,,0807.1,5.00,0.00,28.8,27.9,00.0,37.7,30.5,07.1,0000.0,0021.92,0005.82,0002.24
2022-04-12 01:24:00,,0807.1,5.02,0.00,28.8,27.9,00.0,37.7,30.6,07.1,0000.0,0022.15,0005.88,0002.24
2022-04-12 01:25:00,,0807.1,4.99,0.00,28.8,27.9,00.0,37.7,30.6,07.1,0000.0,0021.33,0005.84,0002.24
2022-04-12 01:26:00,,0807.1,5.00,0.00,28.8,27.9,00.0,37.7,30.6,07.1,0000.0,0021.51,0005.84,0002.24
2022-04-12 01:27:00,,0807.1,5.00,0.00,28.8,27.9,00.0,37.7,30.6,07.1,0000.0,0021.75,0005.77,0002.24
2022-04-12 01:28:00,,0807.0,4.98,0.00,28.8,27.9,00.0,37.7,30.6,07.0,0000.0,0021.14,0005.70,0002.24
2022-04-12 01:29:00,,0807.0,5.02,0.00,28.8,28.0,00.0,37.7,30.6,07.0,0000.0,0020.60,0005.71,0002.24
2022-04-12 01:30:00,,0807.0,5.01,0.00,28.8,27.9,00.0,37.7,30.6,07.0,0000.0,0020.73,0005.73,0002.25
2022-04-12 01:31:00,,0806.9,4.99,0.00,28.8,27.9,00.0,37.7,30.6,07.0,0000.0,0020.70,0005.70,0002.26
2022-04-12 01:32:00,,0806.9,5.01,0.00,28.8,27.9,00.0,37.7,30.6,07.0,0000.0,0020.23,0005.64,0002.26
2022-04-12 01:33:00,,0806.9,5.00,0.00,28.8,27.9,00.0,37.7,30.6,07.1,0000.0,0021.42,0005.62,0002.27
2022-04-12 01:34:00,,0806.9,4.99,0.00,28.8,27.9,00.0,37.7,30.6,07.1,0000.0,0022.32,0005.62,0002.27
2022-04-12 01:35:00,,0807.0,5.01,0.00,28.8,27.9,00.0,37.7,30.6,07.2,0000.0,0022.27,0005.54,0002.26
2022-04-12 01:36:00,,0807.0,5.00,0.00,28.8,28.0,00.0,37.7,30.6,07.5,0000.0,0022.23,0005.46,0002.24
2022-04-12 01:37:00,,0807.0,4.99,0.00,28.8,28.0,00.0,37.7,30.6,07.8,0000.0,0022.53,0005.47,0002.26
2022-04-12 01:38:00,,0806.9,5.02,0.00,28.8,28.0,00.0,37.7,30.6,07.7,0000.0,0022.90,0005.56,0002.31
2022-04-12 01:39:00,,0806.8,4.98,0.00,28.8,28.0,00.0,37.7,30.5,07.5,0000.0,0023.68,0005.57,0002.32
2022-04-12 01:40:00,,0806.7,5.02,0.00,28.8,28.0,00.0,37.7,30.6,07.4,0000.0,0024.56,0005.63,0002.33
2022-04-12 01:41:00,,0806.7,4.99,0.00,28.8,28.0,00.0,37.7,30.6,07.5,0000.0,0024.40,0005.66,0002.33
2022-04-12 01:42:00,,0806.6,5.02,0.00,28.8,28.0,00.0,37.7,30.6,07.4,0000.0,0024.45,0005.71,0002.36
2022-04-12 01:43:00,,0806.5,4.99,0.00,28.8,28.0,00.0,37.7,30.6,07.5,0000.0,0025.11,0005.80,0002.40
2022-04-12 01:44:00,,0806.6,5.02,0.00,28.8,28.0,00.0,37.8,30.6,07.5,0000.0,0024.74,0005.88,0002.43
2022-04-12 01:45:00,,0806.5,5.00,0.00,28.8,28.0,00.0,37.8,30.6,07.3,0000.0,0024.31,0005.85,0002.42
2022-04-12 01:46:00,,0806.3,4.99,0.00,28.8,28.0,00.0,37.8,30.7,07.0,0000.0,0025.13,0005.89,0002.43
2022-04-12 01:47:00,,0806.3,5.00,0.00,28.8,28.0,00.0,37.8,30.7,07.0,0000.0,0025.29,0005.98,0002.43
2022-04-12 01:48:00,,0806.2,5.00,0.00,28.9,28.0,00.0,37.8,30.7,07.0,0000.0,0024.56,0005.98,0002.43
2022-04-12 01:49:00,,0806.1,4.99,0.00,28.9,28.0,00.0,37.8,30.7,06.9,0000.0,0023.44,0005.87,0002.35
2022-04-12 01:50:00,,0806.1,5.02,0.00,28.9,28.0,00.0,37.8,30.7,06.9,0000.0,0022.81,0005.91,0002.35
2022-04-12 01:51:00,,0806.0,4.99,0.00,28.9,28.0,00.0,37.8,30.7,06.9,0000.0,0022.96,0005.92,0002.36
2022-04-12 01:52:00,,0805.9,4.98,0.00,28.9,28.0,00.0,37.8,30.7,06.9,0000.0,0023.01,0005.88,0002.35
2022-04-12 01:53:00,,0805.9,5.01,0.00,28.9,28.0,00.0,37.8,30.7,06.9,0000.0,0024.36,0005.90,0002.33
2022-04-12 01:54:00,,0806.0,5.00,0.00,28.9,28.0,00.0,37.8,30.7,06.9,0000.0,0024.05,0005.87,0002.31
2022-04-12 01:55:00,,0806.1,4.99,0.00,28.9,28.0,00.0,37.8,30.7,06.9,0000.0,0023.55,0005.79,0002.29
2022-04-12 01:56:00,,0806.2,5.02,0.00,28.9,28.0,00.0,37.8,30.7,06.9,0000.0,0024.27,0005.80,0002.29
2022-04-12 01:57:00,,0806.2,4.98,0.00,28.9,28.1,00.0,37.8,30.7,06.8,0000.0,0024.51,0005.78,0002.28
2022-04-12 01:58:00,,0806.2,5.02,0.00,28.9,28.1,00.0,37.8,30.7,06.8,0000.0,0024.65,0005.73,0002.30
2022-04-12 01:59:00,,0806.2,5.00,0.00,28.9,28.1,00.0,37.8,30.7,06.8,0000.0,0025.51,0005.72,0002.30
